SIT-2086

Last updated on Fri May 09 2025 00:03:04 GMT+0000 (Coordinated Universal Time)

1 61764U 24199AF 25128.55029633 .00023825 00000+0 70699-3 0 9993 2 61764 97.3591 357.7735 0007365 310.3965 49.6635 15.34782822 72054
UTC large
Height (km)
Speed (km/s)
/
Latitude / Longitude
Inclination (degrees)
Orbital Period (minutes)
Azimuth
Elevation
Range (km)
Doppler Factor

Next 0 passes for location: London (51.5072 / 0.1276)

Sorry there are no passes over London.